Home   Weather   Thun   Past weeks

Flag for Switzerland Past Weather in Thun, Bern, Switzerland — Yesterday and Last 2 Weeks

50 °F

Passing clouds.

Feels Like: 50 °F
Forecast: 47 / 59 °F
Wind: 1 mph from North

Location: Bern / Belp

Current Time: Oct 24, 2016 at 10:13:38 PM

Latest Report: Oct 24, 2016 at 9:20 PM

Visibility: N/A

Pressure: 29.98 "Hg (28.03 "Hg at 557m altitude)

Humidity: 100%

Dew Point: 50 °F

Location of ThunLocation

Past Weather in Thun — Graph


Thun Temperature Yesterday

Maximum temperature yesterday: 48 °F (at 2:20 PM)
Minimum temperature yesterday: 34 °F (at 12:50 AM)
Average temperature yesterday: 41 °F

High & Low Weather Summary for the Past Weeks

High64 °F (Oct 24, 3:20 PM)100% (Oct 9, 9:20 PM)30.27 "Hg (Oct 9, 9:20 PM)
Low27 °F (Oct 12, 4:20 AM)51% (Oct 20, 4:20 PM)29.62 "Hg (Oct 14, 5:20 PM)
Average45 °F89%30.02 "Hg
* Reported Oct 9 8:20 PM — Oct 24 8:50 PM, Thun, Weather by CustomWeather, © 2016

Note: Actual official high and low records may vary slightly from our data, if they occured in-between our weather recording intervals... More about our weather records


Thun Weather History for the Previous 24 Hours

Scroll right to see more
Time TempWeatherWind HumidityBarometerVisibility
8:50 PM
Mon, Oct 24
52 °FPassing clouds.1 mph94%30.01 "HgN/A
8:20 PM52 °FMostly cloudy.2 mph94%29.98 "HgN/A
7:50 PM50 °FPartly cloudy.1 mph100%29.98 "HgN/A
7:20 PM50 °FPassing clouds.1 mph100%29.98 "HgN/A
6:50 PM52 °FClear.1 mph94%29.98 "Hg10 mi
6:20 PM55 °FSunny.2 mph82%29.98 "Hg10 mi
5:50 PM57 °FSunny.2 mph82%29.95 "Hg10 mi
5:20 PM59 °FSunny.1 mph77%29.95 "Hg10 mi
4:50 PM61 °FSunny.2 mph72%29.95 "Hg10 mi
4:20 PM63 °FSunny.2 mph64%29.95 "Hg10 mi
3:50 PM64 °FSunny.3 mph60%29.95 "Hg10 mi
3:20 PM64 °FSunny.3 mph60%29.95 "Hg10 mi
2:50 PM61 °FSunny.2 mph63%29.95 "Hg10 mi
2:20 PM59 °FPassing clouds.5 mph68%29.95 "HgN/A
1:50 PM57 °FPassing clouds.7 mph72%29.95 "HgN/A
1:20 PM59 °FSunny.8 mph63%29.95 "Hg10 mi
12:50 PM57 °FScattered clouds.6 mph77%29.95 "HgN/A
12:20 PM54 °FScattered clouds.2 mph82%29.95 "HgN/A
11:50 AM50 °FScattered clouds.No wind94%29.98 "HgN/A
11:20 AM46 °FSleet. Scattered clouds.No wind100%29.98 "Hg5 mi
10:50 AM45 °FFog.2 mph100%29.98 "Hg1 mi
10:20 AM43 °FFog.2 mph100%29.98 "Hg0 mi
9:50 AM43 °FFog.5 mph100%29.98 "Hg1 mi
9:20 AM41 °FFog.3 mph100%29.98 "Hg0 mi
8:50 AM41 °FFog.5 mph100%29.95 "Hg0 mi
8:20 AM41 °FFog.1 mph100%29.95 "Hg0 mi
7:50 AM41 °FFog.1 mph100%29.95 "Hg0 mi
7:20 AM41 °FFog.1 mph100%29.95 "Hg0 mi
6:50 AM41 °FFog.No wind100%29.95 "Hg0 mi
6:20 AM41 °FFog.2 mph100%29.92 "Hg0 mi
5:50 AM41 °FFog.6 mph100%29.92 "Hg1 mi
5:20 AM41 °FLight fog.2 mph100%29.95 "Hg1 mi
4:50 AM41 °FLight fog.5 mph100%29.92 "Hg1 mi
4:20 AM41 °FLight fog.2 mph93%29.95 "Hg1 mi
3:50 AM41 °FFog.2 mph100%29.95 "Hg1 mi
3:20 AM43 °FPassing clouds.1 mph100%29.95 "Hg3 mi
2:50 AM43 °FPassing clouds.2 mph100%29.95 "Hg4 mi
2:20 AM45 °FPassing clouds.3 mph93%29.95 "Hg4 mi
1:50 AM45 °FPassing clouds.6 mph100%29.92 "Hg4 mi
1:20 AM43 °FFog.6 mph100%29.92 "Hg3 mi
12:50 AM43 °FFog.5 mph100%29.95 "Hg3 mi
12:20 AM43 °FFog.3 mph100%29.92 "Hg1 mi
11:50 PM
Sun, Oct 23
41 °FFog.2 mph100%29.92 "Hg0 mi
11:20 PM43 °FFog.5 mph100%29.92 "Hg2 mi
10:50 PM43 °FFog.1 mph100%29.92 "Hg1 mi
10:20 PM43 °FFog.2 mph100%29.92 "Hg2 mi
Weather by CustomWeather, © 2016

See weather overviewHow to use our weather pages